�������l�o���
Date,Time,MP-1(��Sv/h),MP-2(��Sv/h),MP-3(��Sv/h),MP-4(��Sv/h),MP-5(��Sv/h),MP-6(��Sv/h),MP-7(��Sv/h),MP-8(��Sv/h),����,����(m/s),���J
2017/07/24,00:00,0.948,1.487,1.012,1.775,1.230,0.526,0.943,0.874,��,4.0,�L
2017/07/24,00:10,0.950,1.489,1.012,1.774,1.231,0.526,0.943,0.872,��,4.3,�L
2017/07/24,00:20,0.952,1.492,1.017,1.778,1.232,0.526,0.941,0.872,��,3.9,�L
2017/07/24,00:30,0.952,1.486,1.017,1.780,1.231,0.526,0.942,0.872,��,4.0,�L
2017/07/24,00:40,0.953,1.491,1.017,1.778,1.229,0.526,0.941,0.871,��쓌,3.9,�L
2017/07/24,00:50,0.953,1.487,1.016,1.778,1.233,0.526,0.940,0.872,��쓌,4.0,�L
2017/07/24,01:00,0.952,1.489,1.012,1.779,1.232,0.524,0.941,0.870,��쓌,4.5,��
2017/07/24,01:10,0.953,1.487,1.009,1.777,1.233,0.523,0.941,0.869,��,3.1,��
2017/07/24,01:20,0.948,1.489,1.009,1.777,1.229,0.521,0.941,0.869,��,4.2,��
2017/07/24,01:30,0.949,1.488,1.010,1.779,1.228,0.522,0.942,0.871,��,4.2,��
2017/07/24,01:40,0.947,1.488,1.008,1.778,1.230,0.521,0.941,0.871,��,4.6,��
2017/07/24,01:50,0.947,1.491,1.008,1.779,1.230,0.521,0.941,0.869,��,4.5,��
2017/07/24,02:00,0.946,1.489,1.008,1.776,1.229,0.519,0.941,0.868,��,4.3,��
2017/07/24,02:10,0.946,1.490,1.009,1.779,1.230,0.520,0.940,0.868,��,3.1,��
2017/07/24,02:20,0.947,1.489,1.005,1.780,1.231,0.521,0.940,0.871,��쐼,2.5,��
2017/07/24,02:30,0.948,1.487,1.006,1.780,1.230,0.520,0.941,0.871,��쐼,2.5,��
2017/07/24,02:40,0.943,1.491,1.006,1.778,1.230,0.520,0.942,0.873,�쐼,1.7,��
2017/07/24,02:50,0.949,1.491,1.005,1.779,1.232,0.521,0.943,0.870,���k��,0.9,��
2017/07/24,03:00,0.946,1.491,1.006,1.779,1.233,0.520,0.940,0.871,���k��,0.6,�L
2017/07/24,03:10,0.944,1.491,1.007,1.780,1.234,0.521,0.942,0.873,�k�k��,2.3,�L
2017/07/24,03:20,0.946,1.491,1.007,1.780,1.232,0.520,0.942,0.872,�k�k��,2.9,�L
2017/07/24,03:30,0.948,1.489,1.006,1.779,1.230,0.518,0.943,0.870,�k,2.5,�L
2017/07/24,03:40,0.946,1.491,1.006,1.781,1.232,0.518,0.943,0.871,�k�k��,2.3,�L
2017/07/24,03:50,0.946,1.490,1.007,1.782,1.233,0.519,0.942,0.871,�k,0.9,�L
2017/07/24,04:00,0.948,1.493,1.007,1.783,1.233,0.521,0.943,0.873,�k,2.2,�L
2017/07/24,04:10,0.948,1.490,1.007,1.784,1.234,0.519,0.942,0.871,�k��,1.9,�L
2017/07/24,04:20,0.948,1.489,1.009,1.783,1.234,0.519,0.941,0.872,�k��,1.2,�L
2017/07/24,04:30,0.949,1.490,1.008,1.783,1.232,0.520,0.942,0.872,�k��,2.0,��
2017/07/24,04:40,0.948,1.493,1.006,1.784,1.234,0.519,0.943,0.873,�k�k��,3.1,��
2017/07/24,04:50,0.949,1.491,1.006,1.784,1.236,0.521,0.943,0.873,�k��,3.0,�L
2017/07/24,05:00,0.951,1.492,1.009,1.785,1.233,0.522,0.944,0.874,�k��,4.8,�L
2017/07/24,05:10,0.949,1.487,1.008,1.780,1.236,0.522,0.942,0.873,�k�k��,4.8,�L
2017/07/24,05:20,0.949,1.485,1.009,1.781,1.234,0.524,0.942,0.872,�k��,4.4,�L
2017/07/24,05:30,0.943,1.476,1.005,1.775,1.228,0.522,0.940,0.871,�k�k��,2.9,�L
2017/07/24,05:40,0.942,1.479,1.003,1.770,1.226,0.522,0.940,0.867,�k�k��,2.5,�L
2017/07/24,05:50,0.938,1.473,0.999,1.765,1.221,0.518,0.936,0.866,�k�k��,3.7,�L
2017/07/24,06:00,0.937,1.461,0.996,1.757,1.216,0.519,0.936,0.867,�k,4.3,�L
2017/07/24,06:10,0.935,1.466,0.995,1.754,1.216,0.519,0.936,0.866,�k�k��,4.2,�L
2017/07/24,06:20,0.936,1.465,0.997,1.755,1.213,0.518,0.935,0.866,�k��,1.9,�L
2017/07/24,06:30,0.934,1.461,0.995,1.751,1.207,0.517,0.931,0.862,���k��,2.6,�L
2017/07/24,06:40,0.937,1.467,0.998,1.755,1.210,0.519,0.933,0.864,���k��,2.6,�L
2017/07/24,06:50,0.939,1.464,0.997,1.756,1.212,0.522,0.934,0.864,��,2.0,�L
2017/07/24,07:00,0.938,1.472,1.000,1.760,1.215,0.520,0.935,0.866,��,0.6,�L
2017/07/24,07:10,0.941,1.469,0.999,1.762,1.217,0.521,0.936,0.866,�쓌,0.8,�L
2017/07/24,07:20,0.940,1.469,0.999,1.759,1.213,0.520,0.934,0.865,-,CALM,�L
2017/07/24,07:30,0.941,1.464,0.993,1.756,1.209,0.522,0.935,0.865,��쓌,0.6,�L
2017/07/24,07:40,0.941,1.467,1.000,1.759,1.212,0.520,0.934,0.866,�쐼,1.2,�L
2017/07/24,07:50,0.942,1.466,0.999,1.761,1.211,0.519,0.936,0.865,��,3.3,�L
2017/07/24,08:00,0.937,1.462,0.998,1.756,1.204,0.518,0.933,0.865,-,CALM,�L
2017/07/24,08:10,0.936,1.461,0.999,1.752,1.204,0.518,0.934,0.863,��,2.6,�L
2017/07/24,08:20,0.936,1.461,1.000,1.754,1.206,0.517,0.935,0.865,�쓌,2.0,�L
2017/07/24,08:30,0.938,1.461,1.001,1.754,1.209,0.518,0.934,0.864,-,CALM,�L
2017/07/24,08:40,0.939,1.463,1.000,1.760,1.206,0.519,0.935,0.864,��,2.3,�L
2017/07/24,08:50,0.939,1.465,0.998,1.760,1.208,0.519,0.934,0.864,��,5.7,�L
2017/07/24,09:00,0.941,1.465,0.999,1.761,1.210,0.519,0.936,0.866,��,4.8,�L
2017/07/24,09:10,0.944,1.465,1.000,1.760,1.208,0.518,0.937,0.867,��,5.6,�L
2017/07/24,09:20,0.944,1.469,0.999,1.762,1.212,0.520,0.937,0.865,��,5.8,�L
2017/07/24,09:30,0.943,1.471,0.999,1.767,1.213,0.517,0.937,0.865,��,7.2,�L
2017/07/24,09:40,0.944,1.469,1.000,1.763,1.213,0.518,0.937,0.866,��,8.2,�L
2017/07/24,09:50,0.943,1.470,0.998,1.765,1.212,0.519,0.937,0.867,��,8.0,��
2017/07/24,10:00,0.943,1.472,0.998,1.768,1.213,0.519,0.936,0.866,��,7.3,�L
2017/07/24,10:10,0.944,1.472,1.002,1.768,1.214,0.519,0.937,0.863,��,6.9,�L
2017/07/24,10:20,0.940,1.469,1.000,1.767,1.212,0.521,0.937,0.865,��,7.1,�L
2017/07/24,10:30,0.941,1.470,0.998,1.770,1.214,0.520,0.937,0.866,��,6.7,�L
2017/07/24,10:40,0.943,1.470,1.001,1.767,1.212,0.521,0.937,0.865,��,7.1,�L
2017/07/24,10:50,0.945,1.469,1.000,1.767,1.211,0.522,0.936,0.865,��쐼,6.5,�L
2017/07/24,11:00,0.945,1.469,1.001,1.766,1.211,0.521,0.938,0.866,��쐼,6.0,�L
2017/07/24,11:10,0.945,1.470,1.002,1.765,1.210,0.520,0.937,0.866,��,4.6,�L
2017/07/24,11:20,0.942,1.468,1.000,1.768,1.214,0.522,0.939,0.868,��,4.6,�L
2017/07/24,11:30,0.945,1.469,0.999,1.765,1.215,0.520,0.940,0.866,��쐼,3.7,�L
2017/07/24,11:40,0.946,1.467,1.001,1.769,1.212,0.522,0.938,0.866,��쐼,3.3,�L
2017/07/24,11:50,0.943,1.468,1.002,1.763,1.214,0.522,0.937,0.866,��쐼,3.2,�L
2017/07/24,12:00,0.945,1.472,1.002,1.765,1.215,0.522,0.937,0.864,��,3.2,�L
2017/07/24,12:10,0.944,1.473,1.002,1.764,1.214,0.522,0.936,0.865,��,2.8,�L
2017/07/24,12:20,0.945,1.472,1.003,1.768,1.216,0.524,0.936,0.865,��쐼,3.0,�L
2017/07/24,12:30,0.947,1.474,1.003,1.766,1.217,0.522,0.938,0.866,��쐼,2.3,�L
2017/07/24,12:40,0.944,1.475,1.004,1.767,1.217,0.522,0.935,0.863,��쐼,2.0,�L
2017/07/24,12:50,0.946,1.477,1.003,1.767,1.216,0.522,0.938,0.867,��쐼,2.8,�L
2017/07/24,13:00,0.945,1.479,1.001,1.767,1.218,0.522,0.939,0.865,��,3.7,�L
2017/07/24,13:10,0.947,1.478,1.003,1.769,1.218,0.521,0.938,0.865,��,4.3,�L
2017/07/24,13:20,0.947,1.478,1.002,1.772,1.218,0.520,0.939,0.869,��,4.0,�L
2017/07/24,13:30,0.947,1.481,1.005,1.773,1.218,0.523,0.937,0.866,��,4.2,�L
2017/07/24,13:40,0.948,1.482,1.005,1.770,1.223,0.522,0.938,0.869,��,4.8,�L
2017/07/24,13:50,0.947,1.480,1.003,1.771,1.222,0.523,0.938,0.868,��,6.0,��
2017/07/24,14:00,0.947,1.482,1.004,1.774,1.221,0.523,0.938,0.867,��,5.4,��
2017/07/24,14:10,0.949,1.481,1.002,1.774,1.222,0.522,0.940,0.867,��,4.2,��
2017/07/24,14:20,0.947,1.483,1.003,1.776,1.222,0.522,0.939,0.867,��,3.1,��
2017/07/24,14:30,0.946,1.482,1.007,1.775,1.223,0.522,0.940,0.868,��쓌,4.1,��
2017/07/24,14:40,0.946,1.487,1.004,1.773,1.222,0.522,0.940,0.867,��쓌,6.6,��
2017/07/24,14:50,0.948,1.485,1.005,1.769,1.225,0.522,0.940,0.869,��쓌,6.7,��
2017/07/24,15:00,0.947,1.484,1.007,1.770,1.224,0.523,0.941,0.868,��,7.5,��
2017/07/24,15:10,0.949,1.484,1.006,1.771,1.228,0.523,0.941,0.868,��,6.4,��
2017/07/24,15:20,0.949,1.485,1.006,1.773,1.226,0.520,0.940,0.867,��쐼,5.6,�L
2017/07/24,15:30,0.949,1.490,1.003,1.777,1.226,0.522,0.941,0.868,��쐼,4.6,�L
2017/07/24,15:40,0.949,1.490,1.006,1.782,1.228,0.522,0.941,0.869,��,6.3,�L
2017/07/24,15:50,0.949,1.488,1.007,1.781,1.228,0.523,0.940,0.867,��,5.4,�L
2017/07/24,16:00,0.949,1.491,1.007,1.780,1.228,0.523,0.941,0.869,��,4.9,�L
2017/07/24,16:10,0.949,1.492,1.009,1.781,1.229,0.523,0.942,0.869,��,5.5,�L
2017/07/24,16:20,0.952,1.491,1.009,1.780,1.230,0.523,0.945,0.868,��,5.3,�L
2017/07/24,16:30,0.954,1.491,1.007,1.779,1.232,0.525,0.947,0.870,��쐼,4.5,�L
2017/07/24,16:40,0.951,1.493,1.008,1.782,1.229,0.523,0.943,0.869,��,3.8,�L
2017/07/24,16:50,0.950,1.485,1.009,1.781,1.229,0.524,0.943,0.871,��쐼,4.7,�L
2017/07/24,17:00,0.951,1.486,1.011,1.783,1.229,0.524,0.944,0.868,��,5.4,�L
2017/07/24,17:10,0.951,1.485,1.010,1.781,1.231,0.526,0.943,0.871,��,5.7,�L
2017/07/24,17:20,0.952,1.486,1.011,1.780,1.228,0.522,0.943,0.871,��,7.1,�L
2017/07/24,17:30,0.953,1.482,1.009,1.781,1.231,0.524,0.943,0.870,��,6.4,�L
2017/07/24,17:40,0.949,1.481,1.010,1.778,1.228,0.524,0.945,0.870,��,6.9,�L
2017/07/24,17:50,0.949,1.484,1.009,1.776,1.228,0.524,0.944,0.872,��,6.7,�L
2017/07/24,18:00,0.950,1.484,1.006,1.780,1.228,0.523,0.944,0.872,��,6.3,�L
2017/07/24,18:10,0.948,1.482,1.007,1.779,1.228,0.524,0.945,0.871,��,6.5,�L
2017/07/24,18:20,0.947,1.482,1.006,1.776,1.229,0.522,0.941,0.870,��,6.1,�L
2017/07/24,18:30,0.947,1.480,1.006,1.779,1.228,0.522,0.944,0.871,��쐼,4.5,�L
2017/07/24,18:40,0.945,1.481,1.004,1.779,1.226,0.522,0.943,0.870,��,4.7,�L
2017/07/24,18:50,0.946,1.482,1.005,1.779,1.223,0.523,0.944,0.870,��,5.4,�L
2017/07/24,19:00,0.947,1.478,1.007,1.779,1.226,0.523,0.943,0.869,��쐼,2.9,�L
2017/07/24,19:10,0.947,1.480,1.006,1.777,1.228,0.524,0.943,0.869,��쐼,3.3,�L
2017/07/24,19:20,0.947,1.475,1.005,1.772,1.222,0.526,0.940,0.868,��쐼,4.0,�L
2017/07/24,19:30,0.944,1.471,1.003,1.771,1.216,0.525,0.940,0.867,��,5.2,�L
2017/07/24,19:40,0.945,1.470,1.004,1.761,1.215,0.525,0.937,0.867,��,5.6,�L
2017/07/24,19:50,0.944,1.469,1.006,1.765,1.214,0.526,0.937,0.865,��,4.2,�L
2017/07/24,20:00,0.944,1.471,1.005,1.766,1.215,0.524,0.938,0.867,��,4.7,�L
2017/07/24,20:10,0.943,1.467,1.004,1.763,1.213,0.522,0.939,0.867,��,3.2,�L
2017/07/24,20:20,0.944,1.468,1.002,1.762,1.214,0.522,0.939,0.866,��,3.7,�L
2017/07/24,20:30,0.943,1.467,1.003,1.761,1.211,0.524,0.937,0.866,��,5.4,�L
2017/07/24,20:40,0.944,1.467,1.000,1.764,1.209,0.521,0.938,0.866,��,6.2,�L
2017/07/24,20:50,0.939,1.460,0.996,1.757,1.208,0.521,0.935,0.867,-,CALM,�L
2017/07/24,21:00,0.941,1.461,1.001,1.751,1.202,0.523,0.934,0.867,��,3.4,�L
2017/07/24,21:10,0.942,1.463,1.001,1.755,1.208,0.525,0.935,0.866,��,2.0,�L
2017/07/24,21:20,0.944,1.469,1.001,1.758,1.208,0.524,0.937,0.866,��쐼,3.3,�L
2017/07/24,21:30,0.942,1.467,1.003,1.759,1.208,0.524,0.935,0.868,��,3.4,�L
2017/07/24,21:40,0.944,1.468,0.999,1.759,1.209,0.523,0.936,0.866,��쐼,3.9,�L
2017/07/24,21:50,0.945,1.466,1.000,1.758,1.209,0.522,0.936,0.868,��,3.8,�L
2017/07/24,22:00,0.945,1.468,0.999,1.757,1.208,0.523,0.934,0.866,��쐼,2.3,�L
2017/07/24,22:10,0.945,1.468,0.997,1.758,1.206,0.520,0.934,0.865,��쐼,2.6,�L
2017/07/24,22:20,0.942,1.467,0.998,1.759,1.208,0.521,0.935,0.866,��쐼,2.5,��
2017/07/24,22:30,0.941,1.466,0.996,1.758,1.208,0.519,0.935,0.864,��,3.0,��
2017/07/24,22:40,0.942,1.463,0.996,1.757,1.208,0.520,0.935,0.866,��,3.3,�L
2017/07/24,22:50,0.942,1.467,0.995,1.759,1.210,0.520,0.934,0.868,��,3.1,�L
2017/07/24,23:00,0.939,1.468,0.996,1.757,1.211,0.519,0.935,0.864,��,3.3,�L
2017/07/24,23:10,0.939,1.467,0.997,1.760,1.207,0.518,0.934,0.864,��쐼,4.5,��
2017/07/24,23:20,0.942,1.466,0.995,1.760,1.210,0.518,0.937,0.865,��쐼,5.0,�L
2017/07/24,23:30,0.940,1.467,0.994,1.760,1.210,0.519,0.937,0.866,��쐼,5.1,�L
2017/07/24,23:40,0.941,1.469,0.995,1.760,1.210,0.518,0.935,0.865,��쐼,4.1,��
2017/07/24,23:50,0.941,1.472,0.997,1.762,1.210,0.519,0.935,0.866,��쐼,5.4,��
